Wendover, UT

7:36 PM MST on December 10, 2016 (GMT -0700)
Wendover

Weather History for KENV - October, 2013

Change the Weather History Date:

Thursday, October 3, 2013

  Actual Average Record
Temperature  
Mean Temperature 48 °F -  
Max Temperature 53 °F 68 °F 83 °F (1963)
Min Temperature 42 °F 46 °F 33 °F (1939)
Degree Days  
Heating Degree Days 18    
Moisture  
Dew Point 22 °F    
Average Humidity 36    
Maximum Humidity 62    
Minimum Humidity 22    
Precipitation  
Precipitation 0.00 in - - ()
Sea Level Pressure  
Sea Level Pressure 29.98 in    
Wind  
Wind Speed 14 mph (NW)    
Max Wind Speed 30 mph    
Max Gust Speed 39 mph    
Visibility 10 miles    
Events      
Averages and records for this station are not official NWS values.
T = Trace of Precipitation, MM = Missing Value Source: NWS Daily Summary

Daily Weather History Graph

Daily Weather History Graph

Search for Another Location

Airport or City:

Trip Planner

Search our weather history database for the weather conditions in past years. The results will help you decide how hot, cold, wet, or windy it might be!

Date:

Astronomy

Oct. 03, 2013 Rise Set
Actual Time 7:35 AM MDT 7:14 PM MDT
Civil Twilight 7:07 AM MDT 7:41 PM MDT
Nautical Twilight 6:35 AM MDT 8:13 PM MDT
Astronomical Twilight 6:03 AM MDT 8:45 PM MDT
Moon 6:12 AM MDT (10/3) 6:25 PM MDT (10/3)
Length of Visible Light 12h 33m
Length of Day
11h 39m
Waning Crescent, 2% of the Moon is Illuminated
Oct 3
Waning Crescent
Oct 4
New
Oct 11
First Quarter
Oct 18
Full
Oct 26
Last Quarter

Hourly Weather History & Observations

Time (MDT) Temp. Windchill Dew Point Humidity Pressure Visibility Wind Dir Wind Speed Gust Speed Precip Events Conditions
12:15 AM 48.2 °F - 32.0 °F 54% 29.81 in 10.0 mi NNE 4.6 mph - N/A   Clear
12:35 AM 48.2 °F - 33.8 °F 58% 29.81 in 10.0 mi NE 4.6 mph - N/A   Clear
12:55 AM 48.2 °F - 35.6 °F 62% 29.80 in 10.0 mi East 3.5 mph - N/A   Clear
1:15 AM 53.6 °F - 26.6 °F 35% 29.84 in 10.0 mi NW 20.7 mph 27.6 mph N/A   Clear
1:35 AM 53.6 °F - 24.8 °F 33% 29.85 in 10.0 mi NW 12.7 mph - N/A   Clear
1:55 AM 53.6 °F - 24.8 °F 33% 29.84 in 10.0 mi NW 27.6 mph 31.1 mph N/A   Clear
2:15 AM 53.6 °F - 24.8 °F 33% 29.85 in 10.0 mi NW 16.1 mph - N/A   Clear
2:35 AM 51.8 °F - 24.8 °F 35% 29.87 in 10.0 mi NNE 15.0 mph 19.6 mph N/A   Clear
2:55 AM 50.0 °F - 24.8 °F 37% 29.88 in 10.0 mi NE 15.0 mph 20.7 mph N/A   Clear
3:15 AM 48.2 °F - 26.6 °F 43% 29.88 in 10.0 mi NE 15.0 mph 21.9 mph N/A   Clear
3:35 AM 48.2 °F - 24.8 °F 40% 29.89 in 10.0 mi NNE 10.4 mph 17.3 mph N/A   Clear
3:55 AM 48.2 °F - 26.6 °F 43% 29.90 in 10.0 mi NNW 11.5 mph - N/A   Clear
4:15 AM 50.0 °F - 24.8 °F 37% 29.90 in 10.0 mi NNW 8.1 mph - N/A   Clear
4:55 AM 48.2 °F - 23.0 °F 37% 29.92 in 10.0 mi NNW 17.3 mph 26.5 mph N/A   Clear
5:15 AM 48.2 °F - 21.2 °F 34% 29.92 in 10.0 mi NNW 17.3 mph 26.5 mph N/A   Clear
5:35 AM 46.4 °F 41.5 °F 21.2 °F 37% 29.92 in 10.0 mi North 10.4 mph - N/A   Clear
5:55 AM 46.4 °F 42.4 °F 21.2 °F 37% 29.92 in 10.0 mi NNE 8.1 mph 19.6 mph N/A   Clear
6:15 AM 48.2 °F - 19.4 °F 32% 29.92 in 10.0 mi Calm Calm - N/A   Clear
6:35 AM 46.4 °F 43.5 °F 19.4 °F 34% 29.92 in 10.0 mi NW 5.8 mph 19.6 mph N/A   Partly Cloudy
6:55 AM 46.4 °F 41.9 °F 17.6 °F 32% 29.93 in 10.0 mi NE 9.2 mph 24.2 mph N/A   Clear
7:15 AM 46.4 °F 43.5 °F 19.4 °F 34% 29.94 in 10.0 mi South 5.8 mph - N/A   Scattered Clouds
7:35 AM 46.4 °F 41.9 °F 19.4 °F 34% 29.94 in 10.0 mi NW 9.2 mph 23.0 mph N/A   Partly Cloudy
7:55 AM 44.6 °F 39.7 °F 19.4 °F 37% 29.95 in 10.0 mi NNW 9.2 mph 23.0 mph N/A   Clear
8:15 AM 44.6 °F 37.2 °F 21.2 °F 39% 29.95 in 10.0 mi NW 17.3 mph 23.0 mph N/A   Clear
8:35 AM 44.6 °F 38.1 °F 21.2 °F 39% 29.96 in 10.0 mi NW 13.8 mph 23.0 mph N/A   Partly Cloudy
8:55 AM 44.6 °F 38.8 °F 19.4 °F 37% 29.97 in 10.0 mi NNW 11.5 mph 23.0 mph N/A   Mostly Cloudy
9:15 AM 44.6 °F 38.4 °F 19.4 °F 37% 29.98 in 10.0 mi NNW 12.7 mph 16.1 mph N/A   Partly Cloudy
9:35 AM 44.6 °F 38.8 °F 19.4 °F 37% 29.98 in 10.0 mi NW 11.5 mph - N/A   Clear
9:55 AM 46.4 °F 41.9 °F 19.4 °F 34% 29.98 in 10.0 mi NNW 9.2 mph 25.3 mph N/A   Clear
10:15 AM 48.2 °F - 17.6 °F 30% 29.98 in 10.0 mi NW 18.4 mph - N/A   Clear
10:35 AM 48.2 °F - 17.6 °F 30% 29.98 in 10.0 mi WNW 24.2 mph 27.6 mph N/A   Clear
10:55 AM 48.2 °F - 17.6 °F 30% 29.98 in 10.0 mi WNW 26.5 mph 32.2 mph N/A   Clear
11:15 AM 50.0 °F - 17.6 °F 28% 29.98 in 10.0 mi West 19.6 mph 28.8 mph N/A   Clear
11:35 AM 50.0 °F - 17.6 °F 28% 30.00 in 10.0 mi NW 18.4 mph 25.3 mph N/A   Partly Cloudy
11:55 AM 50.0 °F - 17.6 °F 28% 30.00 in 10.0 mi West 20.7 mph 28.8 mph N/A   Partly Cloudy
12:15 PM 51.8 °F - 17.6 °F 26% 29.99 in 10.0 mi West 21.9 mph 27.6 mph N/A   Clear
12:35 PM 51.8 °F - 15.8 °F 24% 29.98 in 10.0 mi West 23.0 mph 27.6 mph N/A   Clear
12:55 PM 51.8 °F - 15.8 °F 24% 29.99 in 10.0 mi WNW 20.7 mph 26.5 mph N/A   Clear
1:15 PM 53.6 °F - 15.8 °F 22% 29.99 in 10.0 mi NW 23.0 mph 32.2 mph N/A   Clear
1:35 PM 51.8 °F - 15.8 °F 24% 29.99 in 10.0 mi WNW 23.0 mph 31.1 mph N/A   Partly Cloudy
1:55 PM 51.8 °F - 21.2 °F 30% 30.00 in 10.0 mi WNW 16.1 mph 29.9 mph N/A   Scattered Clouds
2:15 PM 53.6 °F - 17.6 °F 24% 30.00 in 10.0 mi NW 25.3 mph 28.8 mph N/A   Mostly Cloudy
2:35 PM 51.8 °F - 14.0 °F 22% 30.00 in 10.0 mi WNW 20.7 mph 32.2 mph N/A   Partly Cloudy
2:55 PM 53.6 °F - 15.8 °F 22% 30.00 in 10.0 mi WNW 19.6 mph 26.5 mph N/A   Partly Cloudy
3:15 PM 53.6 °F - 17.6 °F 24% 30.01 in 10.0 mi NW 24.2 mph 32.2 mph N/A   Partly Cloudy
3:35 PM 51.8 °F - 19.4 °F 28% 30.01 in 10.0 mi WNW 23.0 mph 29.9 mph N/A   Clear
3:55 PM 51.8 °F - 19.4 °F 28% 30.02 in 10.0 mi NW 19.6 mph 27.6 mph N/A   Clear
4:15 PM 51.8 °F - 19.4 °F 28% 30.04 in 10.0 mi NW 29.9 mph 39.1 mph N/A   Clear
4:35 PM 50.0 °F - 21.2 °F 32% 30.05 in 10.0 mi NW 27.6 mph 33.4 mph N/A   Scattered Clouds
4:55 PM 48.2 °F - 21.2 °F 34% 30.05 in 10.0 mi WNW 21.9 mph 26.5 mph N/A   Clear
5:15 PM 48.2 °F - 21.2 °F 34% 30.05 in 10.0 mi WNW 20.7 mph 28.8 mph N/A   Clear
5:35 PM 48.2 °F - 21.2 °F 34% 30.06 in 10.0 mi NW 21.9 mph 28.8 mph N/A   Mostly Cloudy
5:55 PM 46.4 °F 38.5 °F 23.0 °F 40% 30.06 in 10.0 mi WNW 21.9 mph 28.8 mph N/A   Overcast
6:15 PM 48.2 °F - 21.2 °F 34% 30.06 in 10.0 mi NW 19.6 mph 31.1 mph N/A   Partly Cloudy
6:35 PM 46.4 °F 37.9 °F 21.2 °F 37% 30.05 in 10.0 mi WNW 25.3 mph 31.1 mph N/A   Partly Cloudy
6:55 PM 46.4 °F 38.7 °F 21.2 °F 37% 30.06 in 10.0 mi WNW 20.7 mph - N/A   Partly Cloudy
7:15 PM 46.4 °F 39.8 °F 21.2 °F 37% 30.07 in 10.0 mi WNW 16.1 mph 25.3 mph N/A   Scattered Clouds
7:35 PM 46.4 °F 39.0 °F 23.0 °F 40% 30.07 in 10.0 mi NW 19.6 mph 27.6 mph N/A   Scattered Clouds
7:55 PM 46.4 °F 43.5 °F 23.0 °F 40% 30.07 in 10.0 mi NW 5.8 mph - N/A   Mostly Cloudy
8:15 PM 46.4 °F 40.7 °F 23.0 °F 40% 30.08 in 10.0 mi NW 12.7 mph 20.7 mph N/A   Overcast
8:35 PM 46.4 °F 38.7 °F 23.0 °F 40% 30.07 in 10.0 mi NW 20.7 mph 28.8 mph N/A   Scattered Clouds
8:55 PM 46.4 °F 38.1 °F 23.0 °F 40% 30.07 in 10.0 mi NW 24.2 mph 29.9 mph N/A   Partly Cloudy
9:15 PM 46.4 °F 38.7 °F 23.0 °F 40% 30.07 in 10.0 mi NW 20.7 mph - N/A   Clear
9:35 PM 46.4 °F 38.1 °F 23.0 °F 40% 30.07 in 10.0 mi NW 24.2 mph 35.7 mph N/A   Clear
10:35 PM 46.4 °F 41.1 °F 24.8 °F 43% 30.12 in 10.0 mi NNW 11.5 mph 20.7 mph N/A   Overcast
10:55 PM 46.4 °F 41.5 °F 24.8 °F 43% 30.13 in 10.0 mi NNE 10.4 mph 23.0 mph N/A   Mostly Cloudy
11:15 PM 42.8 °F 36.6 °F 28.4 °F 57% 30.13 in 10.0 mi NE 11.5 mph - N/A   Mostly Cloudy
11:35 PM 42.8 °F 35.8 °F 30.2 °F 61% 30.14 in 9.0 mi North 13.8 mph 32.2 mph N/A   Mostly Cloudy
11:55 PM 44.6 °F 36.6 °F 28.4 °F 53% 30.14 in 10.0 mi NNW 19.6 mph 23.0 mph N/A   Mostly Cloudy